Lid_Strength_Index
6 7 8 7 6 7 7 9 11 10 8 9 10 10 8 7 6 7 6 6 5 5 3 2 1 1 1 -0 -0 -0 1 -0 -0 0 1 1 1 0 0 -0 -1 -1 -0 -0
7 8 7 7 8 7 8 10 11 9 8 9 10 11 8 7 7 6 6 6 5 4 4 3 2 1 1 1 0 0 1 0 0 1 0 0 0 0 0 -0 -1 -1 -0 -0
7 7 7 6 7 9 9 10 11 11 9 8 10 11 10 8 6 6 5 4 4 5 4 3 3 2 2 2 1 1 1 0 0 -0 -0 -0 -0 -0 0 0 1 0 -0 0
7 7 7 7 8 7 10 8 9 10 10 13 9 13 10 9 8 7 6 5 5 4 4 3 3 2 2 1 0 0 1 1 0 -0 -0 0 1 2 1 1 1 0 -0 0
8 8 8 8 7 7 10 7 9 9 10 11 12 13 11 9 9 8 6 5 5 4 4 3 3 2 1 1 1 -0 1 1 1 0 -0 0 1 0 0 0 0 -0 0 0
8 6 7 7 6 7 7 8 9 9 10 13 12 13 12 11 9 7 6 5 5 4 4 3 2 2 1 1 0 0 1 1 0 0 0 -0 0 0 1 1 1 1 1 1
7 7 6 6 8 6 8 9 13 14 14 14 12 13 11 8 7 6 6 5 4 4 4 3 3 3 2 1 1 1 1 1 1 1 0 0 -0 -0 0 0 1 1 1 1
9 10 8 6 7 8 9 9 11 15 15 13 12 14 10 7 6 5 5 5 4 4 4 3 3 2 2 1 1 1 1 1 1 1 0 -0 -0 -0 -0 -0 0 1 1 1
9 10 6 6 6 6 9 10 8 13 13 14 12 11 8 7 7 6 6 5 5 5 4 3 2 2 2 1 1 1 1 0 1 1 -0 -0 -0 -0 -0 -1 -1 1 1 1
7 10 7 7 6 7 7 8 10 10 15 16 13 13 12 9 8 7 7 6 5 4 4 4 2 2 2 1 1 0 0 0 0 1 -0 -0 -0 -1 -1 -1 -0 -0 0 0
7 8 9 7 8 8 8 9 9 10 11 13 14 11 8 8 7 7 6 5 5 4 4 4 2 2 2 1 1 1 1 0 0 0 0 -0 -0 -0 -1 -1 -1 -0 -0 0
7 9 11 9 7 6 7 8 9 10 13 12 12 12 7 7 7 6 6 5 4 4 3 3 2 2 2 2 1 1 1 1 0 -0 0 -0 -0 -0 -0 -0 -1 -1 -0 0
7 9 12 11 8 7 8 8 8 9 10 13 13 11 7 7 7 6 6 5 5 4 4 3 3 3 3 2 3 2 1 1 0 -0 0 -0 -0 -0 -0 -0 -1 -1 -1 -0
6 9 10 12 10 8 10 9 8 9 11 11 11 10 8 8 7 6 6 5 5 5 4 3 3 3 4 3 4 3 2 1 0 0 0 0 0 -0 -0 -1 -1 -1 -1 -1
6 10 9 8 8 8 8 8 8 9 9 10 9 10 8 7 6 6 5 5 5 5 4 5 4 3 4 3 4 3 2 1 1 0 0 0 -0 -0 -0 -0 -1 -1 -1 -1
6 9 9 10 9 9 10 8 8 8 9 9 9 9 6 6 5 6 5 5 5 5 4 4 4 3 4 3 3 4 2 1 0 0 1 0 -0 -0 -0 -0 -0 -0 -0 -0
8 9 10 11 9 9 11 9 9 8 8 8 10 8 6 7 6 6 5 5 5 4 4 4 4 4 3 3 3 3 1 1 0 1 0 0 0 0 0 -0 -0 -0 -0 -0
8 9 9 10 10 13 8 7 7 8 8 7 7 7 6 6 5 5 4 4 4 4 4 4 4 3 3 2 3 2 1 1 1 1 1 0 0 0 0 0 0 -0 -0 -0
7 8 11 11 11 10 9 8 8 9 9 7 7 7 6 5 5 5 4 3 3 4 3 3 3 3 2 2 2 1 1 1 1 1 1 0 0 0 0 0 0 -0 0 0
7 7 9 11 13 14 9 7 5 6 11 6 6 6 6 6 7 6 4 3 3 3 3 3 3 2 2 1 1 1 1 1 2 1 1 0 0 0 0 0 0 -0 -0 0
10 10 11 12 12 10 7 6 5 11 10 6 6 6 6 6 5 5 3 3 3 3 3 2 2 2 1 1 1 1 1 2 2 0 0 0 -0 0 -0 -0 -0 0 0 0
11 12 12 12 13 13 6 6 9 7 5 5 5 5 5 4 4 4 4 3 3 3 2 2 2 2 1 1 1 1 2 1 0 0 0 0 -0 0 1 0 0 0 0 1
11 9 10 10 9 6 5 6 4 4 5 5 4 4 4 4 4 3 3 3 3 2 2 2 2 2 1 1 1 2 1 0 1 1 1 1 0 0 -0 1 1 1 1 1
8 7 9 9 7 6 5 4 4 4 4 4 3 3 4 4 4 3 3 3 3 2 2 2 2 2 2 1 1 1 0 0 1 1 1 0 1 1 0 1 1 2 1 1
7 7 9 8 6 6 5 4 4 4 3 4 3 3 3 3 3 3 3 3 3 2 2 2 2 2 2 1 1 0 0 0 1 1 1 1 1 1 1 1 1 1 0 1
6 8 8 8 6 6 6 4 4 4 4 3 3 3 3 3 3 3 3 2 2 2 2 2 2 2 2 1 1 0 0 0 1 1 1 1 1 1 1 1 1 6 7 7